User: anonymous   Login
Location: Unspecified
(0.0000°N, 0.0000°E)
Time: 20:34:02
(UTC+02:00)
Language:

Ariane H10 - Orbit

View from above orbital plane
View from above orbital plane
View from above satellite
View from above satellite

Ground track
Ground track

The orbit data is extracted from the following two-line orbital elements,

1 19122U 88040B   16272.48076025  .00000736  00000-0  52124-2 0  9997
2 19122   7.4305 280.7754 7145841 286.0825  10.9208  2.33299594190826
Epoch (UTC): 28 September 2016 11:32:17
Eccentricity: 0.7145841
inclination: 7.4305°
perigee height: 476 km
apogee height: 34795 km
right ascension of ascending node: 280.7754°
argument of perigee: 286.0825°
revolutions per day: 2.33299594
mean anomaly at epoch: 10.9208°
orbit number at epoch: 19082

The dashed part of the orbit path shows where the satellite is in the earth's shadow,  

DLR